STARLINK-38397, 100514

Orbit data source: Space-Track

STARLINK-38397, 100514 is a payload satellite owned by SpaceX/Seattle (US) in LEO that was launched on Wed, 26 Aug 2026 UTC launched from the Air Force Western Test Range (AFWTR). Payload-class satellites include a variety of spacecraft equipped with specific instruments for various scientific and technological missions. These include communications satellites like Starlink; space stations such as the ISS; scientific satellites like the Hubble; Earth observation satellites from companies like Planet Labs, Umbra, and HawkEye 360; GPS; miniature CubeSats for education and research; and military/defense satellites.

Loading next visibility...
Identifier
100514, 2026-197N
Orbit
LEO
Country
Flag of USUS
Related business
Manufacturer
SpaceX/Seattle
Mission
Operational spacecraft
Bus & Motor
STARLINK V2MO, Unknown motor
Mass
575 kg wet, ~530 kg dry
Launch date (UTC)
2026-08-26 (2 weeks ago)
Launch vehicle
Unknown
Launch site
Air Force Western Test Range (AFWTR)
Object type
Payload
Rocket body
Debris
Shape & HBR
BOX + PAN, 17.7 m
Radar Cross Section
RCS unknown

Expand to show TLE details & history
Last TLE update: 11 hours ago

TLE from 11 hours ago
0 STARLINK-38397
1 A0514U 26197N   26251.30972157  .00103942  00000-0  61494-3 0  9991
2 A0514  69.9991 156.4489 0003876 269.4422  90.6334 15.77639377  2063
Epoch: 2026-09-08T07:25Z
TLE epoch observation values (Epoch: 2026-09-08T07:25:59.943Z)
Latitude
0.00001°
Longitude
57.57116°
Altitude
339.669 km
Speed
7.705 km/s
True Right ascension
10h 25m 47s
True Declination
0° 00' 00"
Sunlit
Object was in daylight at epoch
Visualization orbit readout
Latitude
Unknown
Longitude
Unknown
Altitude
Unknown
Speed
Unknown
Apparent Right ascension
Unknown
Apparent Declination
Unknown
Sunlit
N/A
Visualization observer readout
Local Sidereal Time
10:25:20
Azimuth
Unknown
Elevation
Unknown
Doppler factor
Unknown
Orbital elements
Apogee altitude
337.609 km
Perigee altitude
332.405 km
Semi-major axis
6,713.144 km
Eccentricity
0.00039
Inclination
69.9991°
RAAN
156.4489°
Arg. of periapsis
269.4422°
True anomaly
90.67781°
Mean anomaly
90.6334°
Eccentric anomaly
90.65561°
Mean motion
3.94597 °/min
Orbital period
91.23 mins
BSTAR
0.00061494
Loading maneuver chart data...
Computing Atmospheric mass density...
Loading historical data...
Loading historical data...
Loading historical data...
Loading historical data...
Loading historical data...
Loading historical data...
Loading historical data...

Documentation

Showing up to 5 results
|